Voltar ao catálogo

NIMBUS 2 DEB

AtivoSSO
NORAD 42436·DEBRIS·🇺🇸 United States

Lançado May 15, 1966 de Vandenberg Space Force Base

Loading…

Próximas Passagens (próximas 24 horas)

TLE

AtualizadoSource: Space-Track

Época: Sep 12, 2026, 01:08 UTC

1 42436U 66040BP  26255.04768544  .00001384  00000-0  23558-2 0  9994
2 42436 100.2946 107.0088 0051356 331.2650  28.5653 13.46580874551621

Acompanhe NIMBUS 2 DEB em tempo real com AllMySat

Download on the App Store